Simultaneous Nadir Overpasses (SNOs) Predictions

Prediction of SNOs between AURA and NPP Satellite Orbit:

Table of predicted SNOs for the next 14.0 days since TLE Epoch: 12/8/2024
Index Date (AURA) Time (AURA) Lat,Lon (AURA) SZA (AURA ) Date (NPP) Time (NPP) Lat,Lon (NPP) SZA (NPP ) Distance(km) Time Diff (sec)
1 12/08/2024 04:38:08 -80.94,-154.83 68.60 12/08/2024 04:37:44 -80.93,-154.78 68.59 0.96 24
2 12/08/2024 05:27:28 80.96, 13.17 111.36 12/08/2024 05:28:27 80.97, 13.23 111.32 1.32 59
3 12/10/2024 16:40:53 80.94,-155.46 111.67 12/10/2024 16:40:58 80.94,-155.40 111.66 1.16 5
4 12/13/2024 03:54:17 80.92, 35.93 111.93 12/13/2024 03:53:30 80.92, 35.88 111.97 0.98 47
5 12/13/2024 04:43:37 -80.96,-155.88 68.15 12/13/2024 04:44:13 -80.95,-155.96 68.16 1.34 36
6 12/15/2024 15:56:59 -80.94, 35.53 67.93 12/15/2024 15:56:44 -80.94, 35.63 67.94 1.89 15
7 12/15/2024 16:46:18 80.98,-156.18 111.98 12/15/2024 16:47:26 80.98,-156.11 111.93 1.15 68
8 12/18/2024 03:10:19 -80.92,-133.05 67.77 12/18/2024 03:09:15 -80.92,-132.87 67.75 3.14 64
9 12/18/2024 03:59:38 80.96, 35.23 112.15 12/18/2024 03:59:57 80.96, 35.35 112.12 2.02 19
10 12/20/2024 15:12:56 80.94,-133.34 112.27 12/20/2024 15:12:28 80.94,-133.29 112.28 0.94 28



Historial Predications of SNOs between AURA and NPP
